[[{"header":{"parameterUnit":"m.s-1","parameterCategory":1,"la1":30.2991,"la2":30.254,"lo1":-89.0895,"lo2":-89.0444,"dy":0.0017,"dx":0.0017,"nx":28,"ny":28,"refTime":"2025-07-25T09:00:00:Z","depth":0,"parameterNumber":2,"parameterNumberName":"U-component_of_WINDS"},"data":[0,0,0,0,0,0,0,0,0,0,0,0,0,0,0,0,0,0,0,0,0,0,0,0,0,0,0,0,0,0,0,0,0,0,0,0,0,0,0,0,0,0,0,0,0,0,0,0,0,0,0,0,0,0,0,0,0,0,-1.1442,-1.1443,0,-1.1506,-1.1507,-1.1508,-1.1538,-1.1538,-1.1538,-1.1538,-1.1607,-1.1608,-1.161,0,0,0,0,0,0,0,0,0,0,0,0,0,-1.135,-1.1351,-1.1442,-1.1443,-1.1444,-1.1506,-1.1507,-1.1508,-1.1538,-1.1538,-1.1538,-1.1538,-1.1606,-1.1608,-1.161,0,0,0,0,0,0,0,0,0,0,0,0,0,-1.1399,-1.1352,-1.1442,-1.1467,-1.1469,-1.1506,-1.1507,-1.1508,-1.1538,-1.1538,-1.1538,-1.1538,-1.1605,-1.1608,-1.1611,-1.1629,0,0,-1.1619,-1.162,0,0,0,0,0,0,0,0,-1.1397,-1.1403,-1.1462,-1.1465,-1.1468,-1.1514,-1.1499,-1.1549,-1.1538,-1.1512,-1.1538,-1.1538,-1.1576,-1.1581,-1.1593,-1.1632,-1.1635,-1.1619,-1.1621,-1.1622,-1.1623,0,0,0,0,0,0,0,-1.1393,-1.14,-1.1468,-1.1463,-1.1467,-1.1475,-1.1482,-1.1509,-1.1544,-1.1515,-1.1517,-1.1524,-1.1578,-1.1591,-1.1595,-1.1636,-1.1619,-1.1622,-1.1623,-1.1625,-1.1693,-1.1693,0,0,0,0,0,0,-1.1385,-1.1397,-1.1466,-1.147,-1.1431,-1.1477,-1.1485,-1.15,-1.1544,-1.155,-1.1524,-1.1525,-1.1586,-1.1592,-1.1598,-1.1622,-1.1622,-1.1625,-1.1626,-1.1692,-1.1693,-1.1693,0,0,0,0,0,0,-1.1383,-1.1391,-1.1463,-1.1434,-1.1444,-1.1479,-1.1495,-1.1501,-1.1514,-1.155,-1.1557,-1.153,-1.1586,-1.1594,-1.1621,-1.1625,-1.1626,-1.1629,-1.1692,-1.1692,-1.1693,-1.167,0,0,0,0,0,0,-1.138,-1.139,-1.1397,-1.1434,-1.1445,-1.1484,-1.1495,-1.1502,-1.1518,-1.152,-1.1558,-1.1565,-1.1587,-1.1616,-1.1623,-1.1628,-1.1631,-1.1692,-1.1692,-1.1693,-1.167,-1.1669,-1.1668,0,0,0,0,0,-1.1377,-1.1388,-1.1397,-1.1405,-1.1454,-1.1484,-1.1491,-1.1515,-1.1518,-1.1526,-1.1549,-1.1564,-1.1623,-1.1619,-1.1627,-1.1633,-1.1692,-1.1692,-1.1693,-1.1671,-1.1669,-1.1668,0,0,0,0,0,0,-1.1352,-1.1394,-1.1404,-1.1427,-1.1451,-1.1489,-1.1499,-1.1512,-1.1537,-1.1538,-1.1568,-1.1577,-1.1601,-1.162,-1.1614,-1.1653,-1.1659,-1.1661,-1.164,-1.1639,-1.1638,-1.1633,-1.1633,0,0,0,0,0,-1.1349,-1.1368,-1.1405,-1.1422,-1.1433,-1.1464,-1.1478,-1.1494,-1.1521,-1.1532,-1.1558,-1.1585,-1.1609,-1.1625,-1.165,-1.1673,-1.1682,-1.1682,-1.168,-1.1679,-1.1681,-1.1695,-1.1695,-1.1694,-1.1694,-1.1694,0,0,-1.1343,-1.1368,-1.1379,-1.1417,-1.1438,-1.1459,-1.1473,-1.1494,-1.151,-1.1536,-1.1562,-1.1582,-1.1614,-1.1639,-1.1652,-1.1656,-1.1683,-1.168,-1.1679,-1.1681,-1.1695,-1.1696,-1.1696,-1.1694,-1.1694,-1.1694,0,0,-1.1343,-1.1364,-1.1381,-1.1401,-1.1432,-1.1453,-1.1456,-1.1492,-1.1506,-1.1533,-1.1552,-1.1573,-1.1614,-1.1636,-1.1653,-1.1661,-1.1675,-1.1668,-1.1663,-1.1676,-1.1677,-1.1677,-1.168,-1.1681,-1.167,-1.167,-1.167,0,-1.1333,-1.1364,-1.1388,-1.1408,-1.1425,-1.1448,-1.1465,-1.1485,-1.1523,-1.1534,-1.1538,-1.1591,-1.1614,-1.1644,-1.1646,-1.1659,-1.1665,-1.1664,-1.1674,-1.1675,-1.1676,-1.1679,-1.168,-1.1668,-1.1669,-1.1669,-1.1669,0,-1.1349,-1.137,-1.138,-1.1415,-1.1433,-1.1452,-1.148,-1.1495,-1.151,-1.153,-1.1557,-1.1586,-1.1617,-1.1625,-1.164,-1.1658,-1.166,-1.1668,-1.1675,-1.1674,-1.1678,-1.168,-1.1667,-1.1667,-1.1668,-1.1668,0,0,-1.1336,-1.1383,-1.1386,-1.1403,-1.1439,-1.1456,-1.1476,-1.1506,-1.1518,-1.1544,-1.1562,-1.1597,-1.1605,-1.1624,-1.1642,-1.1654,-1.1659,-1.1661,-1.1662,-1.166,-1.1681,-1.1674,-1.1675,-1.1668,-1.1669,-1.1669,-1.1678,0,-1.1341,-1.1377,-1.1399,-1.1427,-1.1447,-1.147,-1.1488,-1.1512,-1.1531,-1.1552,-1.1574,-1.1598,-1.1607,-1.1619,-1.1631,-1.1655,-1.1663,-1.1655,-1.1687,-1.1687,-1.1678,-1.1677,-1.167,-1.1678,-1.168,-1.168,-1.168,0,-1.1352,-1.1376,-1.1405,-1.1439,-1.1448,-1.1464,-1.1492,-1.1512,-1.154,-1.1554,-1.1574,-1.1592,-1.1615,-1.162,-1.1653,-1.1647,-1.1661,-1.1675,-1.1676,-1.168,-1.1684,-1.1682,-1.1681,-1.1682,-1.1683,-1.1683,-1.1683,0,-1.134,-1.1379,-1.1402,-1.1415,-1.1455,-1.1465,-1.1482,-1.1511,-1.1527,-1.1552,-1.1563,-1.1591,-1.1607,-1.1629,-1.1654,-1.1655,-1.1685,-1.1691,-1.1697,-1.1697,-1.1703,-1.1702,-1.1704,-1.1711,-1.1711,-1.1711,-1.1711,0,-1.1344,-1.1361,-1.1396,-1.141,-1.143,-1.1456,-1.1476,-1.1495,-1.152,-1.1539,-1.1561,-1.1578,-1.161,-1.1632,-1.1652,-1.1677,-1.1684,-1.1696,-1.1701,-1.1694,-1.1692,-1.1704,-1.1704,-1.1712,-1.1712,-1.1712,-1.1712,0,-1.1333,-1.1358,-1.1384,-1.1419,-1.1428,-1.1441,-1.1472,-1.1487,-1.1507,-1.1531,-1.1538,-1.157,-1.1597,-1.1624,-1.1661,-1.1674,-1.1698,-1.1705,-1.1688,-1.1691,-1.1696,-1.1695,-1.1706,-1.1709,-1.1713,-1.1713,-1.1713,0,-1.1334,-1.1348,-1.1384,-1.1397,-1.1414,-1.1436,-1.1452,-1.1478,-1.1495,-1.1528,-1.1539,-1.1567,-1.1591,-1.1633,-1.166,-1.1688,-1.1696,-1.1698,-1.1701,-1.1693,-1.1697,-1.1696,-1.1697,-1.1697,-1.1697,-1.1697,-1.1697,0,-1.1334,-1.1345,-1.1367,-1.1393,-1.1412,-1.1434,-1.1457,-1.1468,-1.1499,-1.1516,-1.1543,-1.1561,-1.1598,-1.1626,-1.1657,-1.1676,-1.1692,-1.1695,-1.1698,-1.1692,-1.1681,-1.1687,-1.1686,-1.1695,-1.1695,-1.1695,-1.1695,-1.1696,-1.1329,-1.1342,-1.137,-1.1394,-1.1413,-1.1435,-1.145,-1.1472,-1.1494,-1.1526,-1.154,-1.1567,-1.1596,-1.164,-1.1658,-1.1681,-1.1685,-1.1689,-1.169,-1.1691,-1.169,-1.1677,-1.1687,-1.1687,-1.1687,-1.1687,-1.1687,0,-1.133,-1.1348,-1.137,-1.1401,-1.142,-1.1432,-1.1458,-1.1474,-1.1497,-1.1522,-1.1545,-1.1576,-1.1603,-1.1632,-1.1661,-1.1674,-1.1682,-1.1681,-1.168,-1.1684,-1.1684,-1.1678,-1.1674,-1.1674,-1.1674,-1.1674,-1.1674,-1.1674,-1.1332,-1.1355,-1.137,-1.1403,-1.1422,-1.1447,-1.1461,-1.1481,-1.1501,-1.1535,-1.1557,-1.1575,-1.1603,-1.1634,-1.166,-1.1668,-1.1678,-1.1674,-1.1684,-1.1683,-1.1684,-1.1685,-1.1681,-1.1676,-1.1676,-1.1683,-1.1683,-1.1683]},{"header":{"parameterUnit":"m.s-1","parameterCategory":1,"la1":30.2991,"la2":30.254,"lo1":-89.0895,"lo2":-89.0444,"dy":0.0017,"dx":0.0017,"nx":28,"ny":28,"refTime":"2025-07-25T09:00:00:Z","depth":0,"parameterNumber":3,"parameterNumberName":"V-component_of_WINDS"},"data":[0,0,0,0,0,0,0,0,0,0,0,0,0,0,0,0,0,0,0,0,0,0,0,0,0,0,0,0,0,0,0,0,0,0,0,0,0,0,0,0,0,0,0,0,0,0,0,0,0,0,0,0,0,0,0,0,0,0,5.7197,5.7198,0,5.7247,5.7248,5.7248,5.7155,5.7152,5.7149,5.7146,5.7193,5.7197,5.7201,0,0,0,0,0,0,0,0,0,0,0,0,0,5.7017,5.7021,5.7197,5.7198,5.7199,5.7247,5.7248,5.7248,5.7156,5.7152,5.7148,5.7145,5.7191,5.7196,5.7201,0,0,0,0,0,0,0,0,0,0,0,0,0,5.7084,5.7023,5.7197,5.7158,5.7155,5.7247,5.7248,5.7248,5.7156,5.7152,5.7147,5.7143,5.719,5.7196,5.7202,5.7332,0,0,5.7221,5.7223,0,0,0,0,0,0,0,0,5.7081,5.7091,5.7163,5.7161,5.7158,5.719,5.7201,5.7276,5.7158,5.7156,5.7146,5.7141,5.7195,5.7201,5.722,5.7334,5.7336,5.7221,5.7225,5.7228,5.7229,0,0,0,0,0,0,0,5.7076,5.7088,5.7217,5.7165,5.7161,5.7137,5.7141,5.7215,5.7201,5.7156,5.7149,5.7156,5.7193,5.7214,5.722,5.7337,5.7221,5.7227,5.723,5.7233,5.7559,5.7563,0,0,0,0,0,0,5.7077,5.7085,5.7215,5.7218,5.7107,5.7144,5.7149,5.7184,5.72,5.7198,5.716,5.7152,5.7206,5.7213,5.7222,5.7374,5.7228,5.7233,5.7237,5.7554,5.756,5.7565,0,0,0,0,0,0,5.7073,5.7089,5.7213,5.715,5.7164,5.7152,5.7193,5.7188,5.7209,5.7203,5.72,5.7185,5.7203,5.7213,5.7305,5.7374,5.7236,5.7242,5.7548,5.7556,5.7562,5.768,0,0,0,0,0,0,5.7069,5.7089,5.7139,5.7152,5.7168,5.7298,5.7197,5.7192,5.7221,5.721,5.7226,5.7224,5.72,5.7297,5.7311,5.738,5.7247,5.7542,5.7551,5.756,5.767,5.769,5.7708,0,0,0,0,0,5.7063,5.717,5.7142,5.7159,5.7231,5.7302,5.7311,5.7282,5.7227,5.7276,5.7272,5.7223,5.7365,5.7307,5.7323,5.7394,5.7537,5.7549,5.7559,5.7661,5.7686,5.7707,0,0,0,0,0,0,5.7164,5.7171,5.714,5.7255,5.7279,5.7286,5.7348,5.731,5.7349,5.7337,5.7299,5.7303,5.7403,5.7408,5.7343,5.752,5.7441,5.7456,5.7513,5.7537,5.7556,5.7551,5.7252,0,0,0,0,0,5.72,5.7259,5.7261,5.7362,5.7376,5.736,5.739,5.7366,5.7388,5.7398,5.74,5.7423,5.7472,5.7505,5.755,5.7671,5.7671,5.7727,5.7747,5.7762,5.7775,5.7837,5.7861,5.7602,5.7602,5.7602,0,0,5.7275,5.7286,5.7325,5.7383,5.7398,5.7458,5.7369,5.7436,5.748,5.7407,5.7494,5.7498,5.752,5.7626,5.7673,5.7633,5.7847,5.7777,5.7789,5.7793,5.7851,5.7875,5.7897,5.7609,5.7608,5.7607,0,0,5.744,5.7456,5.7541,5.7558,5.7583,5.7572,5.7593,5.7606,5.7606,5.7693,5.7639,5.769,5.7776,5.7794,5.7814,5.7987,5.7942,5.8003,5.8101,5.8163,5.8183,5.8201,5.826,5.8282,5.8015,5.8016,5.8016,0,5.7529,5.7619,5.7589,5.766,5.7686,5.7625,5.7709,5.7727,5.7766,5.7784,5.774,5.7846,5.7857,5.7966,5.8008,5.8027,5.8048,5.7999,5.8183,5.82,5.8217,5.8273,5.8295,5.8023,5.8022,5.8021,5.8021,0,5.7726,5.7788,5.7854,5.7893,5.7927,5.8005,5.7985,5.8022,5.7996,5.7989,5.8077,5.8089,5.8134,5.8159,5.8133,5.8264,5.8238,5.8189,5.8108,5.8249,5.8301,5.8322,5.8033,5.803,5.8028,5.8026,0,0,5.7955,5.7978,5.8002,5.8018,5.8042,5.8089,5.8163,5.8209,5.8241,5.8269,5.8329,5.8403,5.8358,5.8381,5.8357,5.8411,5.8544,5.8355,5.8355,5.8388,5.8687,5.8722,5.8747,5.8516,5.852,5.8523,5.8684,0,5.8118,5.8247,5.8222,5.8347,5.8403,5.8346,5.841,5.8431,5.8427,5.8473,5.8467,5.852,5.8458,5.8471,5.8522,5.8518,5.8604,5.8506,5.8569,5.8572,5.8563,5.8775,5.8812,5.8963,5.8704,5.8708,5.871,0,5.8325,5.8362,5.8493,5.8506,5.8529,5.8588,5.8627,5.8672,5.8694,5.8687,5.8713,5.8679,5.875,5.8671,5.8768,5.8702,5.8727,5.8729,5.8734,5.8737,5.8648,5.8781,5.9011,5.9033,5.8742,5.874,5.8738,0,5.8476,5.8559,5.8648,5.8664,5.8683,5.8725,5.8734,5.8751,5.878,5.8814,5.8832,5.8874,5.8896,5.8929,5.8906,5.8851,5.9006,5.8925,5.9001,5.9001,5.9034,5.9032,5.9269,5.9054,5.9054,5.9053,5.9053,0,5.8659,5.8741,5.8716,5.877,5.886,5.883,5.8919,5.8921,5.8937,5.8989,5.8943,5.8993,5.8961,5.9008,5.8991,5.9073,5.9084,5.9078,5.9072,5.9081,5.9082,5.9095,5.9083,5.9059,5.9058,5.9057,5.9056,0,5.8843,5.883,5.8922,5.8932,5.8937,5.9002,5.901,5.9059,5.9052,5.9119,5.9133,5.9121,5.9174,5.9155,5.9212,5.92,5.9304,5.9285,5.9297,5.9291,5.9367,5.9359,5.9618,5.965,5.9418,5.942,5.9422,0,5.8959,5.9021,5.9038,5.907,5.9083,5.9136,5.9166,5.9139,5.9171,5.92,5.9246,5.9295,5.9332,5.9419,5.9414,5.9457,5.9438,5.9526,5.9443,5.945,5.9436,5.9432,5.9437,5.9541,5.9544,5.9546,5.9548,0,5.9166,5.9157,5.9202,5.9245,5.9281,5.9313,5.9341,5.937,5.9344,5.9382,5.9436,5.9466,5.9524,5.9572,5.961,5.9618,5.9578,5.9574,5.9593,5.9602,5.9605,5.9602,5.9339,5.9568,5.9566,5.9564,5.9563,5.9562,5.9318,5.937,5.939,5.9441,5.9459,5.9486,5.9533,5.9532,5.9577,5.9622,5.9604,5.9666,5.9684,5.9732,5.9745,5.9792,5.9757,5.9786,5.9793,5.9799,5.9808,5.96,5.9799,5.9798,5.9798,5.9797,5.9797,0,5.9521,5.9531,5.9579,5.9619,5.9659,5.9621,5.9649,5.9684,5.974,5.9761,5.98,5.9861,5.9908,5.9908,5.9951,5.9988,5.9971,6.0,5.9996,5.9998,5.9838,5.9816,6.0013,6.0013,6.0013,6.0013,6.0013,6.0013,5.9631,5.9716,5.9709,5.9801,5.981,5.9871,5.9891,5.9915,5.9931,6.0003,6.0042,6.0042,6.0054,6.0098,6.0139,6.0137,6.0154,6.019,6.0181,6.0031,6.0009,5.9989,5.9968,6.0194,6.0195,6.0337,6.0339,6.034]}]]